GW3762 Weather Reports


Display with metric or nautical units.
time (UTC)temp
F
wind
direction
speed
MPH
gust
MPH
rain 1hr
in
rain 24hr
in
rain mn
in
humidity
%
barometer
mb
20260504025459 47 258 4.0 7.0 0.00 0.00 0.00 51 1011.8
20260504025000 47 261 6.0 7.0 0.00 0.00 0.00 51 1011.8
20260504023959 47 259 3.0 4.0 0.00 0.00 0.00 51 1011.8
20260504023500 47 259 4.0 4.0 0.00 0.00 0.00 50 1011.8
20260504022959 47 259 3.0 6.0 0.00 0.00 0.00 51 1011.8
20260504022459 47 261 4.0 6.0 0.00 0.00 0.00 51 1011.8
20260504021958 47 262 4.0 4.0 0.00 0.00 0.00 50 1011.9
20260504021459 47 262 4.0 6.0 0.00 0.00 0.00 50 1011.8
20260504015958 47 257 3.0 6.0 0.00 0.00 0.00 50 1011.8
20260504015458 47 257 4.0 6.0 0.00 0.00 0.00 49 1011.7
20260504014958 48 259 3.0 6.0 0.00 0.00 0.00 50 1011.7
20260504014459 48 258 4.0 655.0 8.10 0.21 0.00 49
20260504013459 48 257 4.0 6.0 0.00 0.00 0.00 49 1011.7
20260504012958 48 259 3.0 4.0 0.00 0.00 0.00 49 1011.6
20260504012458 48 259 3.0 4.0 0.00 0.00 0.00 49 1011.5
20260504011959 48 265 3.0 4.0 0.00 0.00 0.00 51 1011.5
20260504011458 48 265 3.0 4.0 0.00 0.00 0.00 50 1011.5
20260504010958 48 265 3.0 4.0 0.00 0.00 0.00 50 1011.4
20260504010458 48 265 4.0 4.0 0.00 0.00 0.00 50 1011.3
20260504010000 48 265 2.0 3.0 0.00 0.00 0.00 52 1011.2
20260504005459 48 265 2.0 3.0 0.00 0.00 0.00 53 1011.2
20260504004459 47 265 3.0 4.0 0.00 0.00 0.00 52 1011.0
20260504003958 47 265 3.0 4.0 0.00 0.00 0.00 52 1011.0
20260504003458 47 265 2.0 4.0 0.00 0.00 0.00 51 1010.9
20260504002959 48 265 3.0 3.0 0.00 0.00 0.00 51 1010.8
20260504002459 48 265 2.0 3.0 0.00 0.00 0.00 50 1010.7
20260504001958 48 265 1.0 3.0 0.00 0.00 0.00 51 1010.7
20260504001458 48 265 3.0 3.0 0.00 0.00 0.00 53 1010.6
20260504001000 48 265 1.0 3.0 0.00 0.00 0.00 52 1010.6
20260504000459 48 265 2.0 3.0 0.00 0.00 0.00 49 1010.5
20260503235957 48 265 2.0 3.0 0.00 0.00 0.00 47 1010.3
20260503234957 49 265 1.0 2.0 0.00 0.00 0.00 45 1010.2
20260503234458 49 265 0.0 2.0 0.00 0.00 0.00 46 1010.2
20260503233958 49 265 1.0 2.0 0.00 0.00 0.00 49 1010.2
20260503233458 49 265 1.0 3.0 0.00 0.00 0.00 47 1010.1
20260503232958 50 290 2.0 3.0 0.00 0.00 0.00 49 1010.0
20260503232457 50 234 2.0 3.0 0.00 0.00 0.00 46 1010.0
20260503231457 51 254 2.0 5.0 0.00 0.00 0.00 46 1010.0
20260503230958 51 96 6.0 6.0 0.00 0.00 0.00 45 1009.9
20260503230458 52 301 0.0 4.0 0.00 0.00 0.00 43 1009.9
20260503230001 52 290 2.0 4.0 0.00 0.00 0.00 43 1009.8
20260503225459 52 269 1.0 7.0 0.00 0.00 0.00 45 1009.8
20260503224959 52 259 2.0 7.0 0.00 0.00 0.00 45 1009.7
20260503224459 52 249 1.0 5.0 0.00 0.00 0.00 44 1009.7
20260503223958 52 180 0.0 4.0 0.00 0.00 0.00 45 1009.7
20260503223458 52 223 2.0 4.0 0.00 0.00 0.00 45 1009.7
20260503222959 52 221 2.0 5.0 0.00 0.00 0.00 42 1009.7
20260503222458 52 273 1.0 5.0 0.00 0.00 0.00 43 1009.6
20260503221959 53 74 2.0 9.0 0.00 0.00 0.00 43 1009.6
20260503221500 53 291 4.0 9.0 0.00 0.00 0.00 41 1009.6
20260503220958 53 257 3.0 6.0 0.00 0.00 0.00 44 1009.6
20260503215958 53 297 3.0 8.0 0.00 0.00 0.00 45 1009.6
20260503215457 53 234 3.0 9.0 0.00 0.00 0.00 44 1009.7
20260503214458 53 246 2.0 8.0 0.00 0.00 0.00 44 1009.6
20260503213958 53 255 4.0 8.0 0.00 0.00 0.00 45 1009.5
20260503213457 53 284 2.0 8.0 0.00 0.00 0.00 42 1009.6
20260503212958 53 286 4.0 9.0 0.00 0.00 0.00 46 1009.5
20260503212458 53 280 0.0 9.0 0.00 0.00 0.00 44 1009.5
20260503211957 53 317 6.0 9.0 0.00 0.00 0.00 45 1009.5
20260503211457 53 265 6.0 8.0 0.00 0.00 0.00 45 1009.5
20260503210958 53 259 3.0 8.0 0.00 0.00 0.00 44 1009.6
20260503210458 53 265 3.0 8.0 0.00 0.00 0.00 43 1009.5
20260503210000 54 325 1.0 9.0 0.00 0.00 0.00 42 1009.6
20260503205458 54 254 7.0 11.0 0.00 0.00 0.00 44 1009.5
20260503204958 54 252 4.0 11.0 0.00 0.00 0.00 42 1009.5
20260503204457 54 250 3.0 8.0 0.00 0.00 0.00 43 1009.4
20260503203957 54 254 3.0 19.0 0.00 0.00 0.00 45 1009.4
20260503203458 54 246 10.0 19.0 0.00 0.00 0.00 41 1009.3
20260503202958 55 270 0.0 7.0 0.00 0.00 0.00 43 1009.5
20260503202458 54 266 1.0 11.0 0.00 0.00 0.00 48 1009.5
20260503201958 53 297 4.0 9.0 0.00 0.00 0.00 45 1009.5
20260503201457 54 275 6.0 12.0 0.00 0.00 0.00 43 1009.4
20260503200458 55 269 2.0 9.0 0.00 0.00 0.00 45 1009.5
20260503195958 54 263 4.0 10.0 0.00 0.00 0.00 42 1009.4
20260503194958 55 279 3.0 10.0 0.00 0.00 0.00 44 1009.2
20260503194458 57 287 5.0 13.0 0.00 0.00 0.00 44 1009.3
20260503193958 56 252 4.0 13.0 0.00 0.00 0.00 46 1009.2
20260503193458 56 272 7.0 11.0 0.00 0.00 0.00 46 1009.3
20260503192958 56 231 3.0 10.0 0.00 0.00 0.00 45 1009.2
20260503192457 55 275 4.0 9.0 0.00 0.00 0.00 48 1009.3
20260503191458 55 261 7.0 12.0 0.00 0.00 0.00 45 1009.3
20260503191001 57 244 5.0 10.0 0.00 0.00 0.00 41 1009.2
20260503190459 57 284 2.0 11.0 0.00 0.00 0.00 47 1009.2
20260503190003 56 266 3.0 11.0 0.00 0.00 0.00 46 1009.2
20260503185458 56 290 5.0 12.0 0.00 0.00 0.00 44 1009.3
20260503185006 56 259 4.0 12.0 0.00 0.00 0.00 45 1009.2
20260503184458 55 254 8.0 9.0 0.00 0.00 0.00 47 1009.2
20260503183958 55 292 8.0 12.0 0.00 0.00 0.00 47 1009.2
20260503182957 54 304 4.0 9.0 0.00 0.00 0.00 42 1009.3
20260503182457 53 315 6.0 10.0 0.00 0.00 0.00 44 1009.4
20260503181457 54 108 1.0 10.0 0.00 0.00 0.00 45 1009.2
20260503180458 55 254 3.0 10.0 0.00 0.00 0.00 46 1009.3
20260503180000 54 236 2.0 9.0 0.00 0.00 0.00 48 1009.2
20260503175457 52 151 1.0 9.0 0.00 0.00 0.00 49 1009.2
20260503174458 52 294 3.0 11.0 0.00 0.00 0.00 47 1009.4
20260503173958 52 282 2.0 10.0 0.00 0.00 0.00 46 1009.4
20260503173458 51 240 4.0 10.0 0.00 0.00 0.00 45 1009.5
20260503172957 52 275 6.0 9.0 0.00 0.00 0.00 46 1009.5
20260503172457 54 312 5.0 9.0 0.00 0.00 0.00 49 1009.7
20260503171957 52 270 2.0 9.0 0.00 0.00 0.00 58 1009.7
20260503170958 50 227 1.0 9.0 0.00 0.00 0.00 55 1009.8
20260503170458 49 236 2.0 10.0 0.00 0.00 0.00 51 1009.9
20260503150957 51 282 3.0 11.0 0.00 0.00 0.00 56 1009.6
20260503150457 52 313 3.0 10.0 0.00 0.00 0.00 59 1009.6
20260503130957 47 245 7.0 9.0 0.00 0.00 0.00 66 1009.6
20260503130457 47 311 0.0 8.0 0.00 0.00 0.00 68 1009.6
20260503110457 39 315 4.0 8.0 0.00 0.05 0.00 74 1009.4
20260503090456 38 281 2.0 7.0 0.00 0.05 0.00 72 1009.2
20260503081456 39 355 1.0 9.0 0.00 0.05 0.00 68 1009.5
20260503080956 39 182 2.0 7.0 0.00 0.05 0.00 68 1009.5
20260503080456 40 94 3.0 7.0 0.00 0.05 0.00 68 1009.5
20260503072456 41 300 1.0 10.0 0.00 0.05 0.00 64 1009.5
20260503071956 41 259 3.0 10.0 0.00 0.05 0.00 63 1009.6
20260503071456 42 294 4.0 6.0 0.00 0.05 0.00 63 1009.5
20260503070957 42 292 2.0 7.0 0.00 0.05 0.00 63 1009.7
20260503054956 43 26 1.0 8.0 0.00 0.05 0.00 61 1010.5
20260503054456 43 13 1.0 8.0 0.00 0.05 0.00 61 1010.5
20260503053956 44 53 2.0 5.0 0.00 0.05 0.00 61 1010.5
20260503053456 44 57 1.0 5.0 0.00 0.05 0.00 61 1010.6
20260503052956 44 42 2.0 6.0 0.00 0.05 0.00 61 1010.6
20260503051955 44 34 1.0 5.0 0.00 0.05 0.00 60 1010.8
20260503050957 44 59 1.0 6.0 0.00 0.05 0.00 60 1010.7
20260503045458 45 360 2.0 7.0 0.00 0.05 0.00 58 1010.9
20260503044958 45 64 1.0 9.0 0.00 0.05 0.00 58 1011.0
20260503044458 45 63 3.0 9.0 0.00 0.05 0.00 57 1011.1
20260503043958 45 49 6.0 9.0 0.00 0.05 0.00 57 1011.1
20260503043458 45 13 3.0 9.0 0.00 0.05 0.00 57 1011.1
20260503042458 45 46 4.0 6.0 0.00 0.05 0.00 58 1011.2
20260503042001 45 105 7.0 8.0 0.00 0.05 0.00 57 1011.1
20260503041458 45 74 1.0 9.0 0.00 0.05 0.00 57 1011.1
20260503040958 45 53 4.0 9.0 0.00 0.05 0.00 57 1011.1
20260503040458 45 19 4.0 7.0 0.00 0.05 0.00 57 1011.1
20260503035958 45 32 5.0 7.0 0.00 0.05 0.05 57 1011.2
20260503035459 46 67 3.0 7.0 0.00 0.05 0.05 57 1011.1
20260503034958 46 81 2.0 9.0 0.00 0.05 0.05 58 1011.1
20260503034458 46 42 3.0 9.0 0.00 0.05 0.05 57 1011.1
20260503033958 46 42 1.0 9.0 0.00 0.05 0.05 57 1011.1
20260503032458 46 11 4.0 9.0 0.00 0.05 0.05 56 1011.0
20260503031958 46 18 3.0 9.0 0.00 0.05 0.05 56 1011.1
20260503030958 46 298 1.0 10.0 0.00 0.05 0.05 56 1011.0
20260503030457 47 52 2.0 8.0 0.00 0.05 0.05 56 1011.2
20260503025957 47 67 3.0 8.0 0.00 0.05 0.05 55 1011.1